[[{"header":{"parameterUnit":"m.s-1","parameterCategory":1,"la1":30.2991,"la2":30.254,"lo1":-89.0895,"lo2":-89.0444,"dx":0.0017,"dy":0.0017,"nx":28,"ny":28,"refTime":"2023-01-20T09:00:00:Z","depth":0,"parameterNumber":2,"parameterNumberName":"U-component_of_WINDS"},"data":[0,0,0,0,0,0,0,0,0,0,0,0,0,0,0,0,0,0,0,0,0,0,0,0,0,0,0,0,0,0,0,0,0,0,0,0,0,0,0,0,0,0,0,0,0,0,0,0,0,0,0,0,0,0,0,0,0,0,-8.025,-8.0251,0,-8.0326,-8.0326,-8.0327,-8.0135,-8.0129,-8.0123,-8.0117,-8.0196,-8.0204,-8.0211,0,0,0,0,0,0,0,0,0,0,0,0,0,-7.9941,-7.9947,-8.025,-8.0251,-8.0252,-8.0325,-8.0326,-8.0327,-8.0136,-8.0128,-8.0121,-8.0114,-8.0193,-8.0203,-8.0212,0,0,0,0,0,0,0,0,0,0,0,0,0,-8.0052,-7.9949,-8.025,-8.0165,-8.0158,-8.0325,-8.0326,-8.0328,-8.0137,-8.0128,-8.0119,-8.0111,-8.019,-8.0202,-8.0213,-8.0466,0,0,-8.0249,-8.0254,0,0,0,0,0,0,0,0,-8.0046,-8.0063,-8.0176,-8.0171,-8.0164,-8.0211,-8.0246,-8.0374,-8.014,-8.0145,-8.0117,-8.0106,-8.0209,-8.0218,-8.0252,-8.047,-8.0473,-8.025,-8.0257,-8.0262,-8.0265,0,0,0,0,0,0,0,-8.0038,-8.0059,-8.028,-8.0178,-8.0171,-8.0124,-8.0129,-8.027,-8.0227,-8.0144,-8.013,-8.0142,-8.0203,-8.0242,-8.0253,-8.0475,-8.0249,-8.026,-8.0267,-8.0271,-8.0903,-8.0912,0,0,0,0,0,0,-8.0041,-8.0054,-8.0277,-8.0282,-8.0081,-8.0137,-8.0143,-8.0205,-8.0225,-8.0219,-8.015,-8.0133,-8.0226,-8.0239,-8.0255,-8.0551,-8.0262,-8.0272,-8.0279,-8.0893,-8.0905,-8.0916,0,0,0,0,0,0,-8.0035,-8.0063,-8.0274,-8.0164,-8.0187,-8.0151,-8.0223,-8.0212,-8.0249,-8.0229,-8.022,-8.0196,-8.022,-8.0238,-8.0415,-8.0551,-8.0278,-8.0288,-8.0882,-8.0897,-8.0911,-8.1148,0,0,0,0,0,0,-8.0027,-8.0062,-8.0157,-8.0168,-8.0194,-8.0434,-8.0232,-8.022,-8.027,-8.0248,-8.0271,-8.0266,-8.0214,-8.0399,-8.0427,-8.0562,-8.0297,-8.0869,-8.0889,-8.0906,-8.1128,-8.1169,-8.1204,0,0,0,0,0,-8.0017,-8.0222,-8.0163,-8.0191,-8.0313,-8.0442,-8.0457,-8.0393,-8.0282,-8.0377,-8.0364,-8.0265,-8.0533,-8.0418,-8.0448,-8.059,-8.086,-8.0883,-8.0905,-8.111,-8.1161,-8.1203,0,0,0,0,0,0,-8.0229,-8.0221,-8.0157,-8.0371,-8.0408,-8.0409,-8.0527,-8.0448,-8.0518,-8.0495,-8.0413,-8.042,-8.0612,-8.0618,-8.0491,-8.0835,-8.0677,-8.0707,-8.0824,-8.0872,-8.0909,-8.0903,-8.0307,0,0,0,0,0,-8.03,-8.0405,-8.0393,-8.0584,-8.0606,-8.0565,-8.0618,-8.0566,-8.0601,-8.0616,-8.0616,-8.0655,-8.0747,-8.081,-8.0894,-8.1128,-8.113,-8.124,-8.1279,-8.131,-8.1336,-8.146,-8.1508,-8.0989,-8.0988,-8.0988,0,0,-8.0449,-8.0458,-8.053,-8.0626,-8.0649,-8.076,-8.0579,-8.0704,-8.0785,-8.0635,-8.0801,-8.0803,-8.0841,-8.1047,-8.1138,-8.1059,-8.148,-8.1338,-8.1364,-8.1372,-8.1487,-8.1537,-8.158,-8.1003,-8.1001,-8.0998,0,0,-8.0777,-8.0795,-8.0954,-8.0981,-8.1018,-8.0989,-8.1028,-8.1041,-8.1036,-8.1202,-8.1092,-8.1188,-8.1349,-8.138,-8.1418,-8.1759,-8.167,-8.1789,-8.1988,-8.211,-8.2151,-8.2187,-8.2307,-8.2352,-8.1815,-8.1815,-8.1816,0,-8.0957,-8.1119,-8.1047,-8.118,-8.1225,-8.1095,-8.1256,-8.1286,-8.1349,-8.1384,-8.1294,-8.1494,-8.151,-8.1722,-8.1805,-8.184,-8.1881,-8.1785,-8.2151,-8.2186,-8.2218,-8.2332,-8.2378,-8.1829,-8.1828,-8.1826,-8.1825,0,-8.1339,-8.1453,-8.1578,-8.1641,-8.1701,-8.1848,-8.1799,-8.1868,-8.1811,-8.1792,-8.1963,-8.1978,-8.2063,-8.2109,-8.2055,-8.2314,-8.2263,-8.2164,-8.2003,-8.2283,-8.2389,-8.2432,-8.185,-8.1845,-8.184,-8.1837,0,0,-8.18,-8.1822,-8.1869,-8.1896,-8.1928,-8.2015,-8.2157,-8.2239,-8.23,-8.2349,-8.2464,-8.2605,-8.2512,-8.2555,-8.2503,-8.2611,-8.2879,-8.2497,-8.2497,-8.2567,-8.3164,-8.3238,-8.329,-8.2821,-8.2829,-8.2835,-8.316,0,-8.2122,-8.2363,-8.2303,-8.2542,-8.2647,-8.2525,-8.2648,-8.2681,-8.2668,-8.2755,-8.2739,-8.284,-8.2711,-8.2736,-8.2837,-8.2825,-8.2997,-8.2801,-8.2927,-8.2933,-8.292,-8.3345,-8.3423,-8.3729,-8.3201,-8.3208,-8.3213,0,-8.253,-8.2594,-8.2844,-8.2858,-8.2899,-8.3011,-8.3081,-8.3166,-8.3202,-8.3184,-8.3233,-8.316,-8.33,-8.314,-8.3331,-8.3198,-8.3247,-8.3249,-8.326,-8.3267,-8.3089,-8.3363,-8.3825,-8.3871,-8.3278,-8.3273,-8.3268,0,-8.284,-8.2988,-8.3156,-8.3184,-8.3205,-8.3286,-8.3299,-8.3326,-8.3379,-8.3442,-8.3475,-8.3554,-8.3597,-8.366,-8.361,-8.3498,-8.381,-8.3645,-8.3799,-8.38,-8.3868,-8.3864,-8.4343,-8.3903,-8.3902,-8.3901,-8.39,0,-8.3205,-8.3362,-8.3296,-8.34,-8.3572,-8.3502,-8.3675,-8.3674,-8.3699,-8.38,-8.3701,-8.3798,-8.3728,-8.382,-8.3782,-8.3946,-8.3967,-8.3956,-8.3944,-8.3964,-8.3966,-8.3994,-8.3971,-8.3913,-8.3911,-8.3908,-8.3906,0,-8.3579,-8.3541,-8.3717,-8.3723,-8.3728,-8.3855,-8.3861,-8.3957,-8.3936,-8.4066,-8.4093,-8.4061,-8.4164,-8.4121,-8.423,-8.4205,-8.4415,-8.4375,-8.4403,-8.4392,-8.4547,-8.4533,-8.5059,-8.5125,-8.4644,-8.4649,-8.4653,0,-8.3814,-8.3932,-8.3951,-8.4011,-8.4031,-8.413,-8.4184,-8.4121,-8.4181,-8.4231,-8.4322,-8.4416,-8.4487,-8.4657,-8.4644,-8.4727,-8.4688,-8.4867,-8.47,-8.4717,-8.4689,-8.4682,-8.4693,-8.49,-8.4906,-8.491,-8.4914,0,-8.4234,-8.4209,-8.429,-8.4367,-8.4434,-8.4491,-8.4539,-8.4594,-8.4533,-8.4606,-8.471,-8.4766,-8.4877,-8.4971,-8.5045,-8.5058,-8.4977,-8.4967,-8.5007,-8.5028,-8.5038,-8.5033,-8.4492,-8.4955,-8.4951,-8.4948,-8.4946,-8.4944,-8.4544,-8.4643,-8.4672,-8.4766,-8.4796,-8.4843,-8.4934,-8.4925,-8.501,-8.5095,-8.5053,-8.5174,-8.5206,-8.5297,-8.5322,-8.5415,-8.5345,-8.5403,-8.5417,-8.5432,-8.5452,-8.5025,-8.5429,-8.5427,-8.5426,-8.5425,-8.5424,0,-8.4957,-8.497,-8.5058,-8.5128,-8.5202,-8.5119,-8.5168,-8.5236,-8.5343,-8.5381,-8.5454,-8.5573,-8.5665,-8.566,-8.5744,-8.582,-8.5785,-8.5845,-8.5837,-8.5842,-8.551,-8.5467,-8.5872,-8.5872,-8.5872,-8.5872,-8.5871,-8.5871,-8.5181,-8.5343,-8.5323,-8.55,-8.5511,-8.5628,-8.5664,-8.5707,-8.5736,-8.5874,-8.595,-8.5946,-8.5966,-8.6052,-8.6132,-8.6128,-8.6164,-8.6237,-8.622,-8.591,-8.5865,-8.5823,-8.5781,-8.6246,-8.6246,-8.6543,-8.6546,-8.6548]},{"header":{"parameterUnit":"m.s-1","parameterCategory":1,"la1":30.2991,"la2":30.254,"lo1":-89.0895,"lo2":-89.0444,"dx":0.0017,"dy":0.0017,"nx":28,"ny":28,"refTime":"2023-01-20T09:00:00:Z","depth":0,"parameterNumber":3,"parameterNumberName":"V-component_of_WINDS"},"data":[0,0,0,0,0,0,0,0,0,0,0,0,0,0,0,0,0,0,0,0,0,0,0,0,0,0,0,0,0,0,0,0,0,0,0,0,0,0,0,0,0,0,0,0,0,0,0,0,0,0,0,0,0,0,0,0,0,0,-1.2883,-1.2883,0,-1.2858,-1.2858,-1.2858,-1.2842,-1.2842,-1.2842,-1.2842,-1.2816,-1.2816,-1.2815,0,0,0,0,0,0,0,0,0,0,0,0,0,-1.2915,-1.2914,-1.2883,-1.2883,-1.2882,-1.2858,-1.2858,-1.2857,-1.2842,-1.2842,-1.2842,-1.2842,-1.2816,-1.2816,-1.2815,0,0,0,0,0,0,0,0,0,0,0,0,0,-1.2897,-1.2914,-1.2883,-1.2872,-1.2871,-1.2858,-1.2858,-1.2857,-1.2842,-1.2842,-1.2842,-1.2842,-1.2817,-1.2816,-1.2815,-1.2812,0,0,-1.2812,-1.2812,0,0,0,0,0,0,0,0,-1.2898,-1.2896,-1.2874,-1.2873,-1.2871,-1.2853,-1.286,-1.2842,-1.2842,-1.2853,-1.2842,-1.2842,-1.2828,-1.2827,-1.2822,-1.2811,-1.2809,-1.2812,-1.2811,-1.2811,-1.2811,0,0,0,0,0,0,0,-1.2899,-1.2897,-1.2873,-1.2873,-1.2872,-1.2867,-1.2864,-1.2856,-1.2842,-1.2852,-1.2851,-1.2848,-1.2828,-1.2823,-1.2821,-1.2809,-1.2812,-1.2811,-1.2811,-1.281,-1.2791,-1.2791,0,0,0,0,0,0,-1.2902,-1.2898,-1.2874,-1.2872,-1.2884,-1.2867,-1.2864,-1.2859,-1.2842,-1.2839,-1.2848,-1.2847,-1.2825,-1.2823,-1.2821,-1.2814,-1.2811,-1.281,-1.281,-1.2791,-1.2791,-1.2791,0,0,0,0,0,0,-1.2903,-1.29,-1.2875,-1.2885,-1.2881,-1.2866,-1.2861,-1.2859,-1.2854,-1.2839,-1.2836,-1.2846,-1.2825,-1.2822,-1.2813,-1.2813,-1.281,-1.2809,-1.2791,-1.2791,-1.2791,-1.2803,0,0,0,0,0,0,-1.2904,-1.2901,-1.29,-1.2885,-1.2881,-1.2869,-1.2861,-1.2858,-1.2852,-1.2851,-1.2836,-1.2834,-1.2824,-1.2815,-1.2813,-1.2812,-1.2808,-1.2791,-1.2791,-1.2791,-1.2802,-1.2803,-1.2804,0,0,0,0,0,-1.2905,-1.2905,-1.29,-1.2897,-1.288,-1.2869,-1.2867,-1.2856,-1.2853,-1.2851,-1.2841,-1.2834,-1.2813,-1.2814,-1.2811,-1.281,-1.2791,-1.2791,-1.2791,-1.2802,-1.2803,-1.2804,0,0,0,0,0,0,-1.2922,-1.2903,-1.2897,-1.2892,-1.2882,-1.2867,-1.2865,-1.2858,-1.2848,-1.2848,-1.2834,-1.2831,-1.2823,-1.2816,-1.2817,-1.2805,-1.2801,-1.2801,-1.281,-1.2811,-1.2812,-1.2814,-1.2807,0,0,0,0,0,-1.2924,-1.2918,-1.2902,-1.2899,-1.2894,-1.288,-1.2875,-1.2867,-1.2856,-1.2852,-1.2842,-1.2831,-1.2822,-1.2816,-1.2807,-1.2801,-1.2796,-1.2798,-1.2799,-1.28,-1.28,-1.2794,-1.2794,-1.2791,-1.2791,-1.2791,0,0,-1.2931,-1.292,-1.2916,-1.2902,-1.2893,-1.2885,-1.2877,-1.287,-1.2864,-1.2851,-1.2842,-1.2834,-1.2821,-1.2813,-1.2809,-1.2806,-1.2799,-1.28,-1.2801,-1.28,-1.2794,-1.2794,-1.2794,-1.2791,-1.2791,-1.2791,0,0,-1.2938,-1.2929,-1.2925,-1.2916,-1.2902,-1.2893,-1.2892,-1.2876,-1.287,-1.2861,-1.285,-1.2842,-1.2827,-1.2818,-1.2811,-1.2811,-1.2804,-1.2809,-1.2813,-1.2807,-1.2808,-1.2808,-1.2807,-1.2806,-1.2809,-1.2809,-1.2809,0,-1.2947,-1.2936,-1.2924,-1.2916,-1.2909,-1.2897,-1.2891,-1.2883,-1.2867,-1.2862,-1.286,-1.2839,-1.2829,-1.2818,-1.2818,-1.2813,-1.281,-1.2811,-1.2809,-1.2809,-1.2809,-1.2807,-1.2807,-1.2809,-1.2809,-1.2809,-1.2809,0,-1.2947,-1.2939,-1.2937,-1.2922,-1.2914,-1.2908,-1.2894,-1.2888,-1.288,-1.287,-1.2859,-1.2847,-1.2834,-1.2831,-1.2824,-1.2818,-1.2816,-1.2811,-1.2807,-1.281,-1.2808,-1.2808,-1.281,-1.281,-1.281,-1.281,0,0,-1.2966,-1.2942,-1.2941,-1.2933,-1.2915,-1.2909,-1.2901,-1.2888,-1.2882,-1.2871,-1.2863,-1.2849,-1.2844,-1.2836,-1.2827,-1.2822,-1.2821,-1.2818,-1.2817,-1.2818,-1.2812,-1.2815,-1.2815,-1.2816,-1.2816,-1.2816,-1.2813,0,-1.297,-1.2956,-1.2943,-1.2933,-1.2925,-1.2911,-1.2904,-1.2892,-1.2882,-1.2872,-1.2861,-1.2851,-1.2845,-1.284,-1.2834,-1.2823,-1.282,-1.2823,-1.2808,-1.2807,-1.2811,-1.2815,-1.2819,-1.2817,-1.2812,-1.2812,-1.2812,0,-1.2974,-1.2962,-1.2951,-1.2932,-1.2928,-1.2922,-1.2908,-1.2899,-1.2885,-1.2877,-1.2867,-1.2857,-1.2847,-1.2843,-1.2828,-1.283,-1.2823,-1.2816,-1.2815,-1.2814,-1.281,-1.2812,-1.2816,-1.2816,-1.2811,-1.2811,-1.2811,0,-1.2987,-1.2968,-1.2959,-1.2952,-1.2931,-1.2926,-1.2917,-1.2902,-1.2894,-1.2881,-1.2876,-1.2862,-1.2854,-1.2843,-1.2829,-1.2828,-1.2815,-1.2811,-1.2808,-1.2808,-1.2806,-1.2807,-1.2808,-1.2802,-1.2802,-1.2802,-1.2802,0,-1.2993,-1.2986,-1.2964,-1.2958,-1.295,-1.2934,-1.2926,-1.2916,-1.2902,-1.2893,-1.288,-1.2872,-1.2854,-1.2843,-1.2832,-1.282,-1.2817,-1.281,-1.2807,-1.2811,-1.2812,-1.2806,-1.2806,-1.2802,-1.2802,-1.2802,-1.2802,0,-1.3006,-1.2992,-1.298,-1.296,-1.2954,-1.2949,-1.2931,-1.2924,-1.2912,-1.2901,-1.2897,-1.2879,-1.2865,-1.285,-1.2831,-1.2823,-1.2812,-1.2808,-1.2817,-1.2815,-1.2813,-1.2813,-1.2811,-1.2809,-1.2805,-1.2805,-1.2805,0,-1.3011,-1.3005,-1.2984,-1.2977,-1.2968,-1.2956,-1.2948,-1.2931,-1.2923,-1.2904,-1.2899,-1.2884,-1.2871,-1.2849,-1.2834,-1.2819,-1.2814,-1.2815,-1.2812,-1.2815,-1.2813,-1.2814,-1.2812,-1.2816,-1.2816,-1.2816,-1.2816,0,-1.302,-1.3013,-1.3001,-1.2985,-1.2975,-1.2963,-1.2949,-1.2944,-1.2925,-1.2916,-1.2901,-1.2891,-1.2871,-1.2855,-1.2838,-1.2828,-1.2818,-1.2816,-1.2815,-1.2819,-1.2824,-1.282,-1.2818,-1.2817,-1.2817,-1.2817,-1.2817,-1.2817,-1.3029,-1.3023,-1.3006,-1.2992,-1.298,-1.2968,-1.2959,-1.2946,-1.2933,-1.2916,-1.2906,-1.2891,-1.2874,-1.285,-1.2839,-1.2827,-1.2824,-1.2822,-1.2821,-1.2821,-1.2821,-1.2826,-1.2824,-1.2823,-1.2823,-1.2823,-1.2823,0,-1.3037,-1.3025,-1.3012,-1.2994,-1.2982,-1.2974,-1.2958,-1.2949,-1.2936,-1.2921,-1.2908,-1.289,-1.2874,-1.2857,-1.284,-1.2833,-1.2828,-1.2829,-1.2829,-1.2826,-1.2826,-1.2828,-1.2833,-1.2833,-1.2833,-1.2833,-1.2833,-1.2833,-1.304,-1.3028,-1.3017,-1.2999,-1.2986,-1.2971,-1.2963,-1.295,-1.2938,-1.2918,-1.2905,-1.2893,-1.2877,-1.2858,-1.2843,-1.2838,-1.2832,-1.2834,-1.2828,-1.2828,-1.2827,-1.2826,-1.2828,-1.2833,-1.2833,-1.283,-1.283,-1.283]}]]